Back to catalog

STARLINK-33539

AliveCommunicationsVLEO
NORAD 63376·PAYLOAD·🇺🇸 United States

Launched Mar 26, 2025 from Vandenberg Space Force Base

Loading…

Next Passes (next 24 hours)

TLE

FreshSource: CelesTrak SupGP

Epoch: Sep 14, 2026, 14:10 UTC

1 63376C 25063P   26257.59076389 -.00003839  00000+0 -11348-3 0  2571
2 63376  53.1562 263.1601 0001200  77.5380  25.9104 15.34379990    13

Track STARLINK-33539 in real time with AllMySat

Download on the App Store